Location: Warren
(41.8440°N, 79.1450°W)
Time: 10:57:02
(UTC-05:00)

Hubble Space Telescope - Visible Passes

Search period start: 23 January 2018 00:00
Search period end: 02 February 2018 00:00
Orbit: 537 x 541 km, 28.5° (Epoch: 22 January)

Date Brightness Start Highest point End Pass type
(mag) Time Alt. Az. Time Alt. Az. Time Alt. Az.
26 Jan 3.4 18:26:07 10° S 18:26:52 10° S 18:27:38 10° SSE visible
26 Jan 3.7 20:05:30 10° SSW 20:05:31 10° SSW 20:05:31 10° SSW visible
27 Jan 3.3 18:15:08 10° SSW 18:16:28 11° S 18:17:49 10° SSE visible
27 Jan 3.5 19:55:15 10° SSW 19:55:55 11° SSW 19:55:55 11° SSW visible
28 Jan 3.3 18:04:27 10° SSW 18:06:04 12° S 18:07:42 10° SSE visible
28 Jan 3.4 19:45:11 10° SSW 19:46:21 11° S 19:46:21 11° S visible
29 Jan 3.3 17:53:54 10° SSW 17:55:40 12° S 17:57:26 10° SSE visible
29 Jan 3.4 19:35:28 10° SSW 19:36:03 10° S 19:36:37 10° S visible
